Location: Rogalle
(42.8890°N, 1.1916°E)
Time: 01:12:13
(UTC+00:00)

SL-16 R/B - Pass Details

Date: 13 December 2025
Orbit: 841 x 844 km, 71.0° (Epoch: 17 January)

Event Time Altitude Azimuth Distance (km) Brightness Sun altitude
Rises 17:23:18 0° 149° (SSE) 3,384 5.2 -11.0°
Reaches altitude 10° 17:27:09 10° 123° (ESE) 2,456 4.3 -11.7°
Maximum altitude 17:29:36 13° 97° (E) 2,252 3.9 -12.1°
Enters shadow 17:29:45 13° 95° (E) 2,253 3.9 -12.1°
